TimeCDT,TemperatureF,Dew PointF,Humidity,Sea Level PressureIn,VisibilityMPH,Wind Direction,Wind SpeedMPH,Gust SpeedMPH,PrecipitationIn,Events,Conditions,WindDirDegrees,DateUTC
12:15 AM,64.4,60.8,88,29.76,10.0,ESE,6.9,-,N/A,,Scattered Clouds,120,2013-05-19 05:15:00
12:35 AM,64.4,60.8,88,29.75,10.0,ESE,6.9,-,N/A,,Clear,110,2013-05-19 05:35:00
12:55 AM,64.4,60.8,88,29.74,10.0,East,6.9,-,N/A,,Clear,90,2013-05-19 05:55:00
1:15 AM,62.6,60.8,94,29.74,10.0,East,8.1,-,N/A,,Clear,90,2013-05-19 06:15:00
1:35 AM,64.4,60.8,88,29.75,10.0,East,6.9,-,N/A,,Scattered Clouds,100,2013-05-19 06:35:00
1:55 AM,64.4,60.8,88,29.75,10.0,East,6.9,-,N/A,,Overcast,100,2013-05-19 06:55:00
2:15 AM,64.4,60.8,88,29.75,10.0,East,8.1,-,N/A,,Overcast,90,2013-05-19 07:15:00
2:35 AM,64.4,60.8,88,29.76,10.0,East,6.9,-,N/A,,Overcast,90,2013-05-19 07:35:00
2:55 AM,64.4,60.8,88,29.76,10.0,East,8.1,-,N/A,,Overcast,90,2013-05-19 07:55:00
3:15 AM,64.4,60.8,88,29.76,10.0,ESE,5.8,-,N/A,,Mostly Cloudy,110,2013-05-19 08:15:00
3:35 AM,64.4,60.8,88,29.75,10.0,ESE,5.8,-,N/A,,Overcast,110,2013-05-19 08:35:00
3:55 AM,64.4,60.8,88,29.74,10.0,East,6.9,-,N/A,,Mostly Cloudy,100,2013-05-19 08:55:00
4:15 AM,64.4,60.8,88,29.72,10.0,East,9.2,-,N/A,,Mostly Cloudy,100,2013-05-19 09:15:00
4:35 AM,64.4,60.8,88,29.72,10.0,ESE,8.1,-,N/A,,Overcast,110,2013-05-19 09:35:00
4:55 AM,64.4,60.8,88,29.71,10.0,ESE,8.1,-,N/A,,Overcast,110,2013-05-19 09:55:00
5:15 AM,64.4,60.8,88,29.72,10.0,ESE,8.1,-,N/A,,Overcast,120,2013-05-19 10:15:00
5:35 AM,64.4,60.8,88,29.72,10.0,SSE,4.6,-,N/A,,Overcast,150,2013-05-19 10:35:00
5:55 AM,64.4,60.8,88,29.72,10.0,SE,6.9,-,N/A,Rain,Light Rain,140,2013-05-19 10:55:00
6:15 AM,62.6,60.8,94,29.72,7.0,ESE,6.9,-,0.01,Rain,Light Rain,120,2013-05-19 11:15:00
6:35 AM,62.6,60.8,94,29.71,5.0,ESE,8.1,-,0.03,Rain,Rain,110,2013-05-19 11:35:00
6:55 AM,62.6,60.8,94,29.70,4.0,ESE,10.4,-,0.06,Rain,Rain,110,2013-05-19 11:55:00
7:15 AM,62.6,60.8,94,29.69,4.0,ESE,16.1,23.0,0.01,Rain,Light Rain,110,2013-05-19 12:15:00
7:35 AM,62.6,60.8,94,29.69,5.0,ESE,16.1,23.0,0.03,Rain,Light Rain,110,2013-05-19 12:35:00
7:55 AM,62.6,60.8,94,29.67,7.0,East,12.7,18.4,0.03,Rain,Light Rain,90,2013-05-19 12:55:00
8:15 AM,62.6,60.8,94,29.61,7.0,ENE,16.1,21.9,0.02,Rain,Light Rain,60,2013-05-19 13:15:00
8:35 AM,62.6,60.8,94,29.62,10.0,East,12.7,-,0.02,,Light Drizzle,80,2013-05-19 13:35:00
8:55 AM,62.6,60.8,94,29.64,10.0,East,10.4,-,0.02,,Mostly Cloudy,100,2013-05-19 13:55:00
9:15 AM,62.6,60.8,94,29.69,10.0,SE,15.0,-,N/A,,Overcast,140,2013-05-19 14:15:00
9:55 AM,62.6,62.6,100,29.70,7.0,SE,17.3,25.3,0.01,Rain,Light Rain,130,2013-05-19 14:55:00
10:15 AM,62.6,62.6,100,29.68,10.0,SE,12.7,-,N/A,,Overcast,130,2013-05-19 15:15:00
10:35 AM,62.6,60.8,94,29.67,7.0,ESE,12.7,-,N/A,,Overcast,120,2013-05-19 15:35:00
10:55 AM,64.4,62.6,94,29.67,7.0,SE,11.5,20.7,N/A,,Mostly Cloudy,130,2013-05-19 15:55:00
11:15 AM,68.0,62.6,83,29.66,10.0,SE,15.0,20.7,N/A,,Overcast,130,2013-05-19 16:15:00
11:35 AM,66.2,62.6,88,29.67,10.0,SSE,15.0,21.9,N/A,,Overcast,150,2013-05-19 16:35:00
11:55 AM,69.8,64.4,83,29.66,10.0,SE,13.8,-,N/A,,Overcast,140,2013-05-19 16:55:00
12:15 PM,69.8,64.4,83,29.67,10.0,SE,12.7,20.7,N/A,,Overcast,140,2013-05-19 17:15:00
12:35 PM,69.8,62.6,78,29.67,10.0,SSE,19.6,-,N/A,,Overcast,150,2013-05-19 17:35:00
12:55 PM,71.6,64.4,78,29.67,10.0,SSE,12.7,21.9,N/A,,Overcast,150,2013-05-19 17:55:00
1:15 PM,71.6,64.4,78,29.66,10.0,SSE,16.1,20.7,N/A,,Mostly Cloudy,150,2013-05-19 18:15:00
1:35 PM,73.4,64.4,73,29.64,10.0,SE,18.4,24.2,N/A,,Mostly Cloudy,140,2013-05-19 18:35:00
2:15 PM,75.2,62.6,65,29.62,10.0,SE,15.0,-,N/A,,Scattered Clouds,140,2013-05-19 19:15:00
2:35 PM,77.0,64.4,65,29.62,10.0,SSE,15.0,18.4,N/A,,Mostly Cloudy,150,2013-05-19 19:35:00
2:55 PM,77.0,62.6,61,29.63,10.0,SSE,16.1,21.9,N/A,,Mostly Cloudy,150,2013-05-19 19:55:00
3:15 PM,75.2,62.6,65,29.63,10.0,SSE,12.7,-,N/A,,Scattered Clouds,150,2013-05-19 20:15:00
3:35 PM,77.0,62.6,61,29.63,10.0,SSE,11.5,-,N/A,,Mostly Cloudy,150,2013-05-19 20:35:00
3:55 PM,75.2,62.6,65,29.63,10.0,South,15.0,-,N/A,,Mostly Cloudy,170,2013-05-19 20:55:00
4:15 PM,73.4,60.8,65,29.63,10.0,South,11.5,-,N/A,Thunderstorm,Overcast,190,2013-05-19 21:15:00
4:35 PM,71.6,60.8,69,29.62,10.0,South,15.0,23.0,N/A,Rain,Light Rain,170,2013-05-19 21:35:00
4:55 PM,69.8,64.4,83,29.62,10.0,SSE,6.9,-,N/A,Thunderstorm,Mostly Cloudy,160,2013-05-19 21:55:00
5:15 PM,69.8,66.2,88,29.62,7.0,South,10.4,-,N/A,,Mostly Cloudy,170,2013-05-19 22:15:00
5:35 PM,69.8,64.4,83,29.62,7.0,South,9.2,-,N/A,,Overcast,170,2013-05-19 22:35:00
5:55 PM,69.8,62.6,78,29.62,10.0,South,9.2,-,N/A,,Overcast,180,2013-05-19 22:55:00
6:15 PM,69.8,60.8,73,29.61,10.0,South,9.2,-,N/A,,Overcast,190,2013-05-19 23:15:00
6:35 PM,69.8,62.6,78,29.60,10.0,SSW,8.1,-,N/A,,Overcast,200,2013-05-19 23:35:00
6:55 PM,69.8,62.6,78,29.60,10.0,WSW,12.7,-,N/A,Thunderstorm,Overcast,240,2013-05-19 23:55:00
7:15 PM,68.0,62.6,83,29.60,10.0,SW,9.2,-,N/A,,Overcast,220,2013-05-20 00:15:00
7:35 PM,66.2,62.6,88,29.62,7.0,SW,9.2,-,N/A,Rain,Light Rain,220,2013-05-20 00:35:00
7:55 PM,64.4,60.8,88,29.61,4.0,SW,5.8,-,0.04,Rain,Rain,220,2013-05-20 00:55:00
8:15 PM,62.6,60.8,94,29.58,2.5,Calm,Calm,-,0.05,Rain,Rain,0,2013-05-20 01:15:00
8:35 PM,62.6,62.6,100,29.58,4.0,Calm,Calm,-,0.06,Rain,Light Rain,0,2013-05-20 01:35:00
8:55 PM,62.6,60.8,94,29.58,5.0,Calm,Calm,-,0.06,,Scattered Clouds,0,2013-05-20 01:55:00
9:15 PM,62.6,60.8,94,29.60,5.0,NNE,5.8,-,N/A,,Mostly Cloudy,30,2013-05-20 02:15:00
9:35 PM,62.6,62.6,100,29.61,4.0,Calm,Calm,-,N/A,,Overcast,0,2013-05-20 02:35:00
9:55 PM,62.6,60.8,94,29.60,5.0,NNE,5.8,-,N/A,,Overcast,20,2013-05-20 02:55:00
10:15 PM,62.6,60.8,94,29.58,10.0,NNE,3.5,-,N/A,,Overcast,30,2013-05-20 03:15:00
10:35 PM,62.6,60.8,94,29.58,10.0,NE,4.6,-,N/A,,Overcast,50,2013-05-20 03:35:00
11:15 PM,60.8,60.8,100,29.57,7.0,NNE,8.1,-,N/A,,Overcast,30,2013-05-20 04:15:00
11:35 PM,59.0,59.0,100,29.58,7.0,NNE,10.4,-,N/A,,Overcast,30,2013-05-20 04:35:00
11:55 PM,57.2,55.4,94,29.58,5.0,NE,10.4,-,0.01,Rain,Light Rain,40,2013-05-20 04:55:00